User: anonymous
Location: Unspecified
(0.0000°N, 0.0000°E)
Time: 06:42:38
(UTC+02:00)
Language:

Cosmos 1943 Rocket - Orbit

View from above orbital plane
View from above orbital plane
View from above satellite
View from above satellite

Ground track
Ground track

The orbit data is extracted from the following two-line orbital elements,

1 19120U 88039B   14108.53165538  .00000239  00000-0  13708-3 0   336
2 19120 071.0158 246.5082 0021052 165.5403 261.8245 14.19024081342443
Epoch (UTC): 18 April 2014 12:45:35
Eccentricity: 0.0021052
inclination: 71.0158°
perigee height: 813 km
apogee height: 844 km
right ascension of ascending node: 246.5082°
argument of perigee: 165.5403°
revolutions per day: 14.19024081
mean anomaly at epoch: 261.8245°
orbit number at epoch: 34244

The dashed part of the orbit path shows where the satellite is in the earth's shadow,  

DLR